Location: El Portezuelo
(28.4984°N, 16.3589°W)
Time: 06:01:08
(UTC+00:00)

ALOS - Pass Details

Date: 20 January 2020
Orbit: 683 x 686 km, 97.8° (Epoch: 23 February)

Event Time Altitude Azimuth Distance (km) Brightness Sun altitude
Rises 07:26:48 0° 345° (NNW) 3,047 5.3 -7.3°
Reaches altitude 10° 07:30:16 10° 318° (NW) 2,127 4.3 -6.6°
Maximum altitude 07:32:17 13° 292° (WNW) 1,940 3.9 -6.2°
Drops below altitude 10° 07:34:18 10° 266° (W) 2,122 4.2 -5.7°
Sets 07:37:46 0° 238° (WSW) 3,033 5.2 -5.0°
